Regional Weather Roundup
Issued by NWS Little Rock, AR

Home | Current Version | Previous Version | Graphics & Text | Print | Product List | Glossary On
Versions: 1 2 3 4 5 6 7 8 9 10 11 12 13 14 15 16 17 18 19 20 21 22 23 24 25 26 27 28 29 30 31 32 33 34 35 36 37 38 39 40 41 42 43 44 45 46 47 48 49 50
653
ASUS44 KLZK 212205
RWRLZK

WEATHER ROUNDUP FOR ARKANSAS
NATIONAL WEATHER SERVICE LITTLE ROCK AR
500 PM CDT MON AUG 21 2017

NOTE: "FAIR" INDICATES FEW OR NO CLOUDS BELOW 12,000 FEET WITH NO
SIGNIFICANT WEATHER AND/OR OBSTRUCTIONS TO VISIBILITY.

ARZ001-003-010-029-212300-
NORTHWEST ARKANSAS

CITY           SKY/WX    TMP DP  RH WIND       PRES   REMARKS
FAYETTEVILLE   MOSUNNY   87  75  67 S8        30.08F HX  96
FORT SMITH     PTSUNNY   90  76  63 S9        30.03F HX 101
HARRISON       MOSUNNY   87  72  60 S8        30.08F HX  93
BENTONVILLE    MOSUNNY   90  73  58 SW9       30.08F HX  98
ROGERS         MOSUNNY   89  74  60 S10       30.08F HX  98
HIGHFILL       MOSUNNY   88  75  65 S9        30.07F HX  97
SPRINGDALE     PTSUNNY   88  73  62 SW9G16    30.09F HX  96
$$

ARZ004-005-016-212300-
NORTH CENTRAL ARKANSAS

CITY           SKY/WX    TMP DP  RH WIND       PRES   REMARKS
FLIPPIN        PTSUNNY   91  70  49 SW9       30.04F HX  97
MTN HOME       MOSUNNY   90  72  55 S9        30.06F HX  97
$$

ARZ040-041-212300-
WEST CENTRAL ARKANSAS

CITY           SKY/WX    TMP DP  RH WIND       PRES   REMARKS
MENA           MOSUNNY   90  77  66 CALM      30.10F HX 102
MOUNT IDA      MOSUNNY   90  71  53 VRB3      30.07F HX  96
$$

ARZ009-017-025-026-028-212300-
NORTHEAST ARKANSAS

CITY           SKY/WX    TMP DP  RH WIND       PRES   REMARKS
CORNING        FAIR      91  81  70 SW7       30.04F HX 110
JONESBORO      MOSUNNY   90  78  68 SW10      30.04F HX 104
NEWPORT        SUNNY     91  75  59 SW10      30.05F HX 101
WALNUT RIDGE   MOSUNNY   90  75  62 CALM      30.04F HX 100
BLYTHEVILLE    SUNNY     92  77  61 S6        30.05F HX 105
NW BLYTHEVILLE MOSUNNY   95  75  52 SW7       30.04  HX 107
$$

ARZ022-023-033-042-044-212300-
CENTRAL ARKANSAS

CITY           SKY/WX    TMP DP  RH WIND       PRES   REMARKS
LITTLE ROCK    MOSUNNY   91  76  61 S8        30.06F HX 103
JACKSONVILLE   MOSUNNY   93  76  57 S7        30.05F HX 104
CONWAY           N/A     91  77  62 S7        30.03F HX 105
SEARCY         MOSUNNY   92  76  59 S8        30.06F HX 104
HOT SPRINGS    MOSUNNY   90  74  59 S6        30.07F HX  99
RUSSELLVILLE   SUNNY     91  73  55 SW6       30.04F HX  99
CLINTON        FAIR      88  75  66 S5        30.06F HX  97
$$

ARZ036-212300-
EAST ARKANSAS

CITY           SKY/WX    TMP DP  RH WIND       PRES   REMARKS
WEST MEMPHIS   MOSUNNY   89  77  67 SW3       30.05F HX 101
$$

ARZ050-053-066-070-073-212300-
SOUTHWEST ARKANSAS

CITY           SKY/WX    TMP DP  RH WIND       PRES   REMARKS
ARKADELPHIA    FAIR      92  77  61 S3        30.06F HX 105
CAMDEN         MOSUNNY   91  72  52 CALM      30.05F HX  98
TEXARKANA      SUNNY     87  75  67 SE3       30.06F HX  96
EL DORADO      SUNNY     93  73  52 CALM      30.06F HX 102
DE QUEEN       MOSUNNY   89  75  63 S8        30.05S HX  99
$$

ARZ056-057-069-212300-
SOUTHEAST ARKANSAS

CITY           SKY/WX    TMP DP  RH WIND       PRES   REMARKS
PINE BLUFF     SUNNY     92  74  55 MISG      30.06F HX 101
MONTICELLO     SUNNY     92  72  51 CALM      30.06F HX  99

$$






USA.gov is the U.S. government's official web portal to all federal, state and local government web resources and services.